Temp
33 34 36 38 40 41 42 43 44 45 44 45 43 43 44 44 45 49 51 57 56 55 54 55 53 52 53 53 54 54 55 55 51 34 36 36 34 36 37 39 40 43 44
33 34 36 37 38 38 39 41 42 42 42 42 42 41 42 43 44 45 45 49 48 45 45 46 44 45 44 44 45 45 46 44 43 34 32 32 32 33 34 34 36 37 41
32 33 34 34 35 36 37 39 40 40 40 40 40 39 39 40 40 40 41 42 42 42 43 41 41 42 40 41 41 40 40 41 40 36 31 32 32 33 33 33 33 33 35
30 31 32 32 33 35 36 37 38 39 38 37 37 37 37 38 38 37 38 37 37 37 37 38 39 39 39 39 38 38 38 37 37 34 33 32 32 32 33 32 31 32 32
29 29 30 31 33 34 34 35 35 35 35 35 35 35 36 37 37 36 35 36 35 34 34 35 35 36 37 39 39 37 37 35 34 33 32 32 32 32 32 32 30 30 29
27 28 29 30 31 32 32 33 33 33 33 34 33 33 33 33 36 37 34 35 35 34 32 33 34 35 36 37 38 40 39 36 34 34 33 32 32 32 32 31 30 29 27
26 27 29 29 29 30 31 31 31 32 32 32 32 32 32 32 34 34 33 33 33 33 32 32 32 32 33 33 35 35 34 37 37 34 33 32 32 32 32 31 31 31 29
26 27 28 29 29 30 30 30 30 31 30 31 31 32 31 32 33 33 32 32 32 32 32 33 32 32 32 32 31 31 31 31 31 32 31 31 31 32 33 33 32 28 28
25 27 28 29 29 30 29 30 30 30 30 30 31 31 31 31 33 33 32 32 31 31 32 32 33 32 34 34 30 28 28 29 34 35 35 35 35 35 34 31 27 27 23
24 27 29 30 30 29 29 29 30 30 30 31 31 31 31 31 34 34 33 32 30 29 31 32 33 32 34 33 29 28 24 25 26 26 26 26 27 27 28 25 24 18 15
25 27 28 29 30 30 30 29 29 29 29 29 29 30 31 32 33 34 33 31 30 29 29 29 31 34 34 33 32 28 27 27 26 22 21 21 21 21 21 22 22 21 15
24 26 27 27 29 29 29 29 29 28 27 27 27 27 28 30 33 35 35 34 32 28 27 28 30 32 32 32 30 32 30 24 18 16 17 16 17 18 18 16 16 16 18
21 23 24 26 27 27 27 27 27 27 26 25 24 23 23 25 27 31 34 33 32 29 29 29 29 27 27 27 28 26 19 17 15 14 15 16 17 15 14 13 12 11 9
19 23 24 24 24 24 25 26 25 24 23 23 23 20 20 21 23 25 26 27 29 27 28 26 27 25 23 19 16 17 16 15 14 13 14 13 11 8 7 9 7 7 7
18 22 25 23 22 24 24 23 24 26 24 19 18 19 16 19 25 28 26 25 26 26 21 22 18 15 13 13 12 11 11 12 10 8 7 6 8 9 9 6 5 2 3
15 16 22 25 24 21 21 22 29 29 30 29 29 23 22 28 29 28 28 28 28 29 13 9 11 12 11 10 8 7 7 7 8 7 4 5 5 4 3 4 4 -2 -1
13 15 18 21 24 22 21 18 14 22 27 27 28 27 28 28 27 26 26 26 26 20 9 8 7 7 7 7 6 5 4 4 1 2 1 1 1 -0 0 -2 -1 -2 -3
4 8 8 9 11 14 19 20 18 12 7 6 20 23 25 25 25 24 20 14 4 7 0 1 1 2 2 2 1 -1 -1 -0 -1 -2 -2 -5 -6 -7 -6 -7 -6 -9 -9
5 5 5 6 7 8 10 12 10 5 1 -1 1 11 9 20 19 19 16 0 -2 -3 -6 -4 -5 -4 -3 -4 -4 -5 -7 -7 -8 -9 -10 -10 -11 -10 -11 -11 -9 -7 -9
0 4 4 4 4 6 6 7 5 2 2 -2 -3 -3 -1 2 -3 -3 -3 -5 -5 -8 -8 -8 -10 -11 -11 -10 -11 -11 -11 -11 -11 -12 -12 -12 -13 -13 -11 -13 -14 -12 -13
-0 0 4 2 2 2 2 3 2 1 -1 -5 -3 -1 9 -4 -8 -9 -10 -11 -11 -11 -11 -11 -13 -13 -14 -14 -14 -14 -14 -11 -13 -14 -14 -14 -15 -11 -14 -12 -14 -16 -16
2 -1 -2 -1 0 2 -0 0 1 1 1 -0 -3 1 15 -6 -8 -10 -11 -11 -13 -14 -14 -14 -14 -14 -14 -13 -14 -15 -15 -15 -16 -16 -15 -14 -14 -14 -14 -11 -11 -10 -11
3 1 -1 -3 -2 -2 -2 -3 -2 1 -1 -2 -5 -5 -6 -8 -10 -11 -11 -13 -14 -14 -15 -15 -15 -15 -18 -17 -18 -14 -14 -13 -12 -15 -14 -14 -13 -11 -14 -11 -9 -9 -12
2 2 2 -3 -3 -4 -3 -5 -4 -2 -3 -3 -6 -7 -7 -10 -11 -10 -13 -14 -15 -15 -16 -15 -16 -14 -16 -16 -18 -18 -14 -12 -15 -11 -11 -12 -11 -12 -18 -20 -14 -14 -13
1 1 1 1 -1 -1 -2 -5 -4 -7 -5 -3 -8 -9 -11 -11 -12 -13 -14 -14 -14 -15 -14 -15 -16 -14 -10 -9 -11 -12 -11 -2 -6 -9 -13 -17 -13 -15 -16 -20 -18 -20 -20
1 1 -0 -2 -4 -5 -2 -1 -3 -4 -5 -6 -7 -8 -7 -10 -12 -14 -14 -15 -14 -15 -15 -16 -14 -11 -10 -9 -8 -6 -5 1 -3 -6 -9 -12 -13 -13 -16 -15 -15 -11 -11
MSLP
1011.18 1010.08 1009.00 1008.12 1007.46 1007.04 1006.83 1007.01 1006.80 1006.80 1006.69 1006.47 1006.57 1006.50 1006.09 1005.77 1005.34 1004.58 1003.91 1003.60 1003.75 1004.41 1005.03 1005.41 1006.51 1006.86 1007.60 1008.31 1008.95 1009.35 1009.97 1010.54 1011.69 1014.26 1015.20 1015.58 1015.68 1015.71 1015.36 1015.17 1015.02 1015.01 1015.31
1011.21 1010.16 1009.19 1008.31 1007.78 1007.47 1007.40 1007.17 1006.95 1007.01 1006.89 1006.62 1006.54 1006.54 1006.20 1005.86 1005.50 1004.99 1004.35 1003.20 1003.87 1004.72 1005.27 1005.81 1006.52 1007.30 1007.96 1008.76 1009.10 1009.71 1010.08 1010.66 1011.54 1013.65 1015.25 1015.81 1016.04 1016.25 1016.26 1015.99 1016.27 1016.28 1016.37
1011.23 1010.31 1009.47 1008.84 1008.36 1007.99 1007.69 1007.45 1007.24 1007.09 1007.00 1007.00 1006.96 1006.81 1006.54 1006.18 1006.09 1005.66 1005.00 1004.64 1004.41 1005.02 1005.78 1006.28 1007.20 1008.04 1008.60 1008.77 1009.43 1010.03 1010.52 1010.80 1011.49 1012.98 1014.80 1015.73 1016.42 1016.46 1017.05 1017.14 1017.32 1017.50 1017.60
1011.35 1010.48 1009.81 1009.25 1008.74 1008.32 1008.00 1007.71 1007.48 1007.22 1007.31 1007.50 1007.39 1007.18 1007.04 1006.50 1006.83 1006.47 1005.81 1006.00 1004.71 1005.99 1006.64 1007.23 1007.81 1008.64 1009.51 1009.75 1009.44 1010.27 1010.86 1011.10 1012.04 1012.99 1014.59 1015.49 1016.20 1016.78 1017.15 1017.62 1018.26 1018.65 1018.76
1011.50 1010.67 1010.04 1009.48 1008.98 1008.64 1008.42 1008.20 1008.05 1007.92 1007.94 1008.02 1007.95 1007.68 1007.13 1007.13 1007.44 1006.51 1006.66 1007.24 1006.09 1006.87 1007.68 1008.07 1008.66 1009.56 1009.66 1010.34 1010.22 1010.62 1011.12 1011.90 1012.48 1013.56 1014.88 1015.75 1016.14 1016.88 1017.01 1017.89 1018.79 1019.29 1019.69
1011.95 1011.16 1010.51 1009.92 1009.44 1009.08 1008.88 1008.64 1008.53 1008.64 1008.60 1008.77 1008.48 1008.33 1008.10 1008.20 1008.34 1007.34 1007.14 1008.51 1006.63 1006.91 1007.96 1008.92 1009.76 1011.04 1011.44 1010.72 1011.05 1011.88 1011.76 1011.94 1013.03 1014.00 1014.93 1015.80 1016.44 1016.95 1017.47 1018.09 1018.96 1019.71 1020.31
1012.58 1011.83 1011.15 1010.58 1010.05 1009.71 1009.48 1009.33 1009.36 1009.33 1009.36 1009.43 1009.21 1009.25 1009.45 1009.30 1009.28 1008.22 1009.40 1008.15 1008.41 1008.52 1008.68 1010.08 1010.74 1011.69 1011.66 1011.64 1011.60 1012.64 1012.90 1013.01 1013.75 1014.30 1015.12 1015.97 1016.28 1016.67 1017.04 1018.08 1019.03 1019.46 1019.83
1013.16 1012.48 1011.88 1011.40 1010.97 1010.63 1010.32 1010.29 1010.18 1010.13 1010.24 1010.35 1010.25 1010.04 1010.05 1010.42 1009.63 1009.44 1010.41 1010.07 1009.34 1009.99 1010.29 1010.89 1011.96 1012.25 1012.31 1012.41 1012.89 1013.41 1013.98 1014.29 1015.02 1015.83 1016.12 1016.84 1017.02 1017.26 1017.39 1017.88 1018.72 1019.70 1020.33
1013.98 1013.31 1012.61 1012.13 1011.75 1011.47 1011.24 1011.24 1011.19 1011.01 1011.10 1011.31 1011.15 1010.66 1011.45 1011.16 1011.27 1012.07 1012.47 1012.42 1010.62 1010.98 1011.94 1012.35 1012.54 1012.64 1013.20 1013.72 1013.63 1014.09 1015.36 1015.98 1016.51 1016.78 1017.08 1017.25 1017.54 1018.01 1017.85 1018.22 1019.38 1020.08 1021.14
1015.09 1014.26 1013.50 1012.96 1012.67 1012.47 1012.36 1012.26 1012.28 1012.06 1012.09 1011.98 1011.60 1012.05 1012.11 1012.33 1012.81 1013.21 1013.50 1012.93 1012.75 1012.68 1013.43 1013.44 1013.48 1014.25 1014.17 1014.39 1014.64 1015.39 1016.64 1017.60 1017.88 1018.18 1018.33 1018.55 1019.39 1019.25 1019.07 1019.29 1019.87 1020.62 1021.22
1015.96 1015.24 1014.67 1014.23 1013.90 1013.65 1013.58 1013.47 1013.12 1012.95 1012.77 1012.79 1013.04 1012.97 1013.02 1013.22 1013.48 1013.45 1013.90 1013.48 1013.44 1014.02 1014.58 1015.26 1015.37 1015.69 1015.73 1015.85 1016.22 1016.76 1017.45 1018.17 1018.47 1019.06 1019.52 1019.96 1020.01 1020.65 1020.87 1020.71 1020.28 1020.27 1021.04
1016.67 1016.15 1015.61 1015.20 1015.01 1014.90 1014.58 1014.40 1014.32 1014.25 1014.23 1014.35 1014.20 1014.59 1015.00 1014.90 1014.73 1014.94 1014.67 1014.36 1015.21 1015.21 1016.04 1016.79 1016.76 1016.31 1016.76 1016.95 1017.32 1017.68 1018.11 1018.82 1019.51 1019.85 1021.01 1021.45 1021.44 1021.23 1021.36 1021.64 1021.46 1021.85 1021.67
1017.45 1016.81 1016.60 1016.41 1016.17 1015.93 1015.73 1015.72 1015.65 1015.46 1015.47 1015.60 1015.83 1016.07 1016.04 1015.76 1015.71 1015.73 1015.63 1015.59 1015.72 1016.06 1016.77 1017.03 1017.30 1017.56 1017.95 1018.28 1018.78 1019.13 1019.10 1019.69 1020.44 1020.74 1021.78 1022.29 1021.83 1021.86 1022.14 1021.64 1022.76 1022.68 1022.46
1018.09 1017.54 1017.25 1017.05 1016.93 1016.88 1016.73 1016.78 1016.71 1016.59 1016.48 1016.62 1016.93 1017.13 1017.14 1017.20 1017.15 1016.90 1016.79 1016.88 1016.99 1017.10 1017.40 1017.95 1018.63 1019.48 1020.01 1019.94 1020.22 1020.10 1020.68 1021.35 1021.90 1022.44 1023.04 1022.84 1022.50 1022.54 1022.80 1022.25 1023.02 1022.99 1023.26
1018.98 1018.62 1018.24 1017.75 1017.60 1017.73 1017.82 1017.88 1017.70 1017.75 1017.97 1018.16 1018.40 1018.29 1018.08 1017.92 1017.72 1017.66 1017.69 1017.79 1017.89 1018.40 1018.89 1019.52 1020.28 1020.58 1020.74 1021.37 1021.84 1022.44 1022.89 1022.66 1022.97 1023.80 1023.78 1023.53 1023.36 1022.93 1023.38 1023.53 1023.77 1023.97 1024.18
1019.38 1019.00 1018.78 1018.78 1018.93 1018.90 1018.66 1018.46 1018.29 1018.30 1018.39 1018.39 1018.50 1018.70 1018.49 1018.29 1018.27 1018.19 1017.97 1018.12 1018.31 1018.66 1019.75 1021.14 1021.96 1022.10 1022.51 1022.81 1023.30 1023.65 1023.97 1024.12 1024.74 1024.66 1024.20 1023.93 1024.05 1024.34 1024.68 1024.78 1024.81 1025.52 1025.52
1019.76 1019.53 1019.31 1019.07 1018.96 1019.06 1019.12 1019.19 1019.36 1019.50 1019.40 1019.24 1019.12 1019.04 1018.89 1018.77 1018.89 1019.04 1019.33 1019.40 1019.59 1020.18 1021.56 1022.47 1022.62 1022.78 1023.13 1023.68 1023.74 1024.76 1025.44 1025.16 1024.76 1024.65 1024.88 1024.86 1024.73 1025.00 1025.52 1026.18 1026.12 1025.79 1026.07
1019.97 1019.78 1019.65 1019.58 1019.48 1019.37 1019.32 1019.56 1019.85 1020.19 1020.83 1020.88 1020.52 1020.33 1020.15 1020.04 1019.97 1020.13 1020.58 1020.95 1021.72 1022.00 1022.72 1023.20 1023.67 1024.01 1024.48 1024.91 1025.20 1025.20 1025.02 1024.90 1025.08 1025.14 1025.20 1025.28 1025.43 1026.05 1026.65 1026.87 1026.71 1026.86 1027.10
1020.42 1020.32 1020.24 1020.20 1020.11 1020.03 1019.92 1020.09 1020.42 1020.78 1021.24 1021.58 1021.70 1021.55 1021.52 1021.35 1021.44 1021.56 1021.80 1022.53 1023.22 1023.76 1024.14 1024.57 1024.61 1024.67 1025.02 1024.86 1024.66 1024.65 1024.92 1025.36 1025.45 1025.54 1025.76 1025.93 1026.23 1026.73 1027.35 1027.42 1027.42 1027.51 1027.69
1020.53 1020.40 1020.39 1020.75 1020.68 1020.56 1020.56 1020.75 1021.06 1021.36 1021.73 1022.01 1022.19 1022.42 1022.07 1022.08 1022.70 1023.09 1023.26 1023.59 1024.12 1024.69 1024.78 1024.96 1025.02 1025.05 1025.05 1024.99 1025.13 1025.44 1025.78 1026.00 1026.20 1026.35 1026.51 1026.64 1026.82 1027.06 1027.77 1027.93 1027.99 1028.17 1028.26
1020.43 1020.52 1020.39 1020.83 1020.90 1020.95 1021.05 1021.27 1021.61 1022.02 1022.52 1022.89 1023.15 1022.92 1023.00 1023.80 1024.48 1024.97 1025.20 1025.23 1025.39 1025.52 1025.55 1025.59 1025.76 1025.81 1025.81 1025.91 1026.07 1026.16 1026.24 1026.32 1026.39 1026.50 1026.70 1026.93 1027.18 1027.56 1027.51 1027.65 1027.84 1028.05 1028.41
1019.78 1020.36 1020.63 1020.72 1020.95 1021.19 1021.38 1021.62 1021.94 1022.33 1022.77 1023.19 1023.54 1023.20 1023.34 1024.10 1024.62 1025.06 1025.28 1025.43 1025.67 1025.69 1025.66 1025.71 1026.09 1026.07 1025.84 1026.03 1026.46 1026.43 1026.46 1026.50 1026.57 1026.79 1026.99 1027.08 1027.15 1027.27 1027.48 1027.64 1027.77 1027.86 1028.08
1019.68 1020.33 1020.67 1020.93 1021.16 1021.44 1021.73 1021.95 1022.16 1022.44 1022.86 1023.32 1023.78 1024.08 1024.00 1024.37 1024.57 1024.81 1025.04 1025.32 1025.59 1025.36 1025.47 1025.65 1025.82 1025.87 1025.90 1025.90 1025.94 1026.05 1026.13 1026.07 1026.22 1026.63 1026.94 1026.97 1027.05 1027.08 1027.21 1027.44 1027.45 1027.66 1027.68
1019.42 1020.04 1020.49 1020.89 1021.19 1021.46 1021.69 1021.93 1022.19 1022.47 1022.83 1023.24 1023.65 1023.89 1024.05 1024.29 1024.59 1024.82 1025.08 1025.42 1025.29 1025.28 1025.28 1025.28 1025.38 1025.46 1025.58 1025.57 1025.51 1025.47 1025.39 1025.27 1025.44 1025.63 1025.88 1026.21 1026.30 1026.34 1026.53 1026.72 1026.80 1026.84 1026.98
1019.19 1019.77 1020.17 1020.53 1020.92 1021.27 1021.59 1021.84 1022.09 1022.36 1022.65 1023.03 1023.61 1023.77 1023.89 1024.17 1024.46 1024.71 1025.04 1024.92 1024.89 1025.00 1024.89 1024.90 1024.92 1024.86 1024.76 1024.71 1024.72 1024.65 1024.53 1024.37 1024.40 1024.46 1024.90 1025.37 1025.34 1025.34 1025.52 1025.71 1025.76 1025.92 1026.08
1018.88 1019.32 1019.83 1020.28 1020.65 1020.95 1021.20 1021.53 1021.85 1022.23 1022.63 1022.96 1023.04 1023.27 1023.57 1023.94 1024.19 1024.42 1024.64 1024.84 1024.85 1024.61 1024.54 1024.48 1024.33 1024.22 1024.13 1023.99 1023.83 1023.70 1023.57 1023.38 1023.35 1023.35 1023.64 1024.10 1024.36 1024.33 1024.50 1024.67 1024.79 1024.95 1024.96
Wind_Speed
11 12 11 8 7 6 5 4 3 4 3 3 3 4 4 5 6 7 7 12 11 8 6 9 8 6 5 5 5 4 7 6 3 2 2 4 5 5 7 8 8 8 9
12 11 10 9 8 6 5 5 4 3 3 3 4 4 3 4 5 4 3 6 10 9 6 8 6 4 7 5 4 3 4 3 4 4 2 2 4 4 5 9 7 8 8
12 10 9 8 7 6 5 5 3 1 3 3 3 3 2 4 3 3 4 2 11 10 10 10 9 8 6 4 5 5 3 4 4 5 4 2 2 3 5 6 7 8 8
10 9 8 7 7 5 4 3 2 3 4 3 3 3 2 5 2 2 8 6 14 12 11 12 11 9 6 5 7 6 6 6 6 8 5 4 3 3 3 4 5 5 5
10 8 7 7 6 5 4 4 5 5 6 4 3 5 6 7 3 7 7 2 15 16 14 15 15 14 18 9 5 6 8 7 7 7 5 4 4 3 4 2 4 3 4
10 9 7 7 6 6 6 7 8 7 8 7 9 9 10 7 9 14 14 7 16 16 16 14 14 13 17 25 25 18 11 8 9 4 5 7 5 4 4 4 4 2 2
11 10 9 7 8 8 8 9 9 10 10 10 11 12 12 11 18 22 13 9 13 13 17 11 12 8 11 12 23 23 22 23 15 5 10 4 4 3 6 5 3 2 2
12 12 10 8 9 9 11 11 11 11 11 11 12 13 14 13 25 26 18 10 14 16 15 14 12 11 12 13 15 16 16 15 13 9 10 7 6 5 5 3 4 5 5
12 12 11 10 10 10 11 11 11 12 12 12 12 17 13 14 22 16 10 7 16 18 15 13 13 14 18 18 14 16 14 13 18 22 21 21 19 15 7 5 3 3 2
12 11 11 11 12 12 11 11 10 11 12 11 15 14 15 14 20 16 8 7 13 12 14 16 24 15 21 18 11 10 11 7 7 8 7 13 13 13 17 8 2 3 3
10 9 10 10 10 9 10 9 9 10 12 13 13 12 15 12 14 20 15 8 10 11 11 10 11 22 22 21 17 9 8 8 12 8 7 6 7 8 7 7 7 4 3
7 7 8 9 8 7 9 8 9 9 9 10 11 10 9 9 16 19 20 20 16 11 11 8 10 22 21 20 14 17 17 12 5 6 6 5 5 5 5 5 7 6 6
6 6 5 7 8 8 9 8 7 7 7 8 8 8 8 9 9 19 19 21 21 13 9 16 21 20 20 17 18 17 11 6 4 6 5 3 4 3 2 4 3 5 6
5 5 5 8 9 9 7 7 6 6 7 6 6 7 6 6 6 7 7 6 13 11 13 10 15 15 15 12 8 10 7 6 4 3 2 1 2 3 2 3 3 3 3
3 3 6 6 7 7 8 6 7 8 7 5 5 4 3 4 6 9 6 4 5 9 7 5 5 5 7 6 6 6 5 5 5 2 1 2 3 3 4 3 2 3 3
3 2 2 5 5 4 5 6 17 16 17 17 16 8 3 11 13 13 12 9 8 10 6 4 3 4 4 4 4 5 4 4 1 2 3 3 3 3 3 3 3 3 2
4 3 2 3 3 4 3 4 4 8 16 15 16 16 16 13 12 11 11 13 9 9 4 3 4 4 4 4 4 3 2 1 1 3 3 3 3 3 4 2 2 3 4
3 3 3 2 2 2 2 4 3 2 2 3 9 11 13 14 13 9 9 8 5 7 3 4 3 3 2 3 2 2 1 2 2 2 3 3 4 3 3 3 3 2 2
3 2 2 2 2 3 3 4 4 4 3 2 2 5 7 13 13 14 14 4 4 3 2 3 2 2 2 2 2 3 3 3 3 3 3 3 3 3 2 2 2 3 2
3 5 3 2 2 3 3 4 3 3 4 3 3 3 4 6 5 5 5 4 4 3 3 3 2 2 3 3 3 3 3 3 2 2 1 1 1 2 1 0 1 0 1
3 3 4 3 3 2 3 3 3 4 3 3 1 2 5 4 3 2 1 2 3 2 2 2 2 1 1 1 2 2 1 0 1 1 1 1 1 0 2 2 2 2 2
3 3 2 3 2 3 3 3 3 4 4 4 1 1 9 3 3 3 2 2 2 2 2 3 2 2 3 3 3 2 2 2 2 1 1 2 2 2 2 2 2 2 2
4 4 3 2 2 4 3 3 3 4 4 3 3 3 2 2 3 3 3 3 3 2 2 2 2 1 2 2 3 4 3 4 4 3 3 3 3 3 3 3 3 3 3
5 5 5 4 3 3 3 3 3 4 4 4 4 3 3 3 3 3 3 3 2 2 2 3 3 4 3 3 3 3 4 4 3 5 6 4 5 4 3 4 5 5 5
5 5 5 5 5 4 4 3 3 3 4 4 3 3 3 3 3 3 3 3 3 2 4 3 3 5 7 8 7 7 7 10 6 6 5 5 7 7 4 4 4 4 4
5 5 5 4 4 4 4 4 4 3 3 3 3 3 3 3 3 3 3 3 3 3 4 3 5 8 8 7 9 10 10 11 9 10 6 6 6 6 5 7 7 6 7
Wind_Direction
313 311 311 320 332 342 358 332 328 325 341 326 301 281 275 290 289 284 280 203 192 171 165 163 162 148 158 169 191 193 206 199 169 66 72 26 43 28 44 45 41 57 58
317 317 319 326 335 340 335 322 324 339 346 331 314 314 297 300 302 268 273 162 140 127 116 109 97 105 120 122 108 105 134 100 104 121 123 82 74 29 51 64 51 50 62
321 318 323 329 329 325 318 309 300 85 33 359 360 352 336 14 326 355 61 88 108 113 113 99 92 90 89 104 109 104 86 93 99 126 131 123 100 70 70 64 59 61 53
323 327 330 329 325 321 328 342 28 80 79 42 28 30 329 50 5 160 82 119 92 88 83 94 82 95 104 118 107 119 117 97 100 106 92 100 102 82 74 98 70 39 52
340 344 347 342 349 360 18 38 44 55 64 45 52 42 37 35 330 99 88 82 101 100 82 75 78 75 73 62 92 99 102 104 101 110 112 117 114 137 128 105 90 85 47
350 354 353 4 18 30 45 56 61 59 58 57 56 52 52 52 49 82 65 225 93 97 94 78 73 78 86 76 73 71 76 103 112 107 116 127 111 100 108 104 119 135 103
5 1 8 15 33 41 54 59 65 64 64 62 62 62 58 58 63 69 61 64 85 85 93 97 88 63 77 84 74 70 64 65 64 93 116 102 117 140 137 127 154 130 109
13 13 14 24 42 51 62 61 62 64 63 63 62 63 60 53 54 56 58 67 76 73 78 81 91 87 75 86 84 76 66 63 64 69 75 68 67 72 84 95 93 94 79
8 15 21 27 44 53 58 62 63 69 67 66 63 63 62 61 62 65 60 75 76 70 67 71 74 77 83 85 86 88 79 74 74 79 79 74 69 65 82 99 96 115 109
356 5 17 30 42 46 49 53 62 69 70 68 66 60 59 61 64 71 63 72 76 74 61 67 68 73 77 75 80 88 93 84 87 70 60 56 49 52 54 58 78 125 126
347 9 23 26 37 44 53 51 53 62 64 60 65 56 56 52 61 65 65 71 78 79 70 62 70 76 78 80 80 77 89 95 83 76 67 64 61 46 37 32 42 65 108
346 16 28 31 36 40 53 49 49 54 64 63 62 59 44 45 65 68 76 79 83 89 82 75 76 77 73 72 71 82 89 82 72 66 72 57 61 65 59 46 50 56 51
360 14 28 51 45 39 46 53 52 51 66 66 62 55 38 28 30 40 74 77 75 75 79 76 69 66 63 62 69 69 55 57 71 69 65 72 73 52 39 83 58 66 66
15 17 38 55 53 50 50 52 56 52 49 51 61 50 40 36 33 34 37 44 77 79 78 68 73 77 78 70 51 49 47 42 55 88 89 37 38 43 32 37 40 13 73
49 45 74 45 46 65 70 66 61 74 84 86 74 65 63 55 52 64 51 53 90 115 103 83 77 59 56 57 51 44 38 40 50 14 54 74 61 51 29 14 39 16 65
92 42 66 120 121 99 72 61 63 68 67 69 79 81 21 73 67 55 51 71 61 116 49 66 76 80 86 83 82 67 37 47 31 78 54 51 55 60 43 11 39 62 74
109 84 52 61 108 131 128 119 112 59 57 61 57 57 57 61 66 61 63 57 77 89 95 95 98 82 71 79 79 95 158 187 146 70 78 65 60 56 56 25 26 52 32
97 91 106 104 94 63 73 110 119 133 88 14 40 59 59 56 53 69 70 69 43 46 60 89 99 104 107 124 149 133 95 59 59 55 59 53 51 63 46 32 35 70 46
147 137 108 98 85 86 74 73 87 92 107 135 7 53 20 59 56 64 73 95 119 100 86 87 105 104 115 98 72 59 60 46 46 45 33 44 38 70 30 32 28 39 66
150 149 132 133 99 85 86 98 84 77 68 55 39 354 355 30 28 20 30 43 56 53 57 70 41 54 62 66 60 61 57 47 50 61 76 72 55 97 113 327 1 15 273
155 150 137 105 109 119 122 124 126 116 116 112 162 220 150 123 149 140 136 112 140 142 148 141 138 121 108 113 105 100 118 168 149 169 159 213 138 209 222 224 227 229 230
144 140 119 137 123 102 121 128 133 135 145 147 196 350 119 108 135 155 170 184 198 186 179 153 166 181 181 170 171 159 182 228 243 212 233 230 213 215 207 240 259 251 245
151 150 138 130 134 136 116 135 138 148 155 155 154 147 131 159 170 183 198 208 200 202 201 164 171 254 237 222 195 180 190 227 223 186 214 224 232 233 204 234 237 254 238
156 159 159 156 149 153 159 165 161 156 154 165 174 176 170 178 195 209 211 216 223 238 220 205 204 225 252 256 237 224 221 231 205 217 211 211 230 227 209 210 226 226 234
161 161 166 168 169 176 168 170 171 170 174 173 168 166 187 188 197 224 235 226 221 220 242 235 228 236 247 255 254 248 242 253 234 210 201 201 226 223 217 211 212 222 226
163 168 164 158 169 172 174 175 182 170 173 181 187 190 183 192 213 216 226 220 230 243 255 247 244 249 256 251 251 252 245 247 239 229 211 204 218 228 208 225 227 227 233